User: anonymous   Login
Location: Dunedin
(45.8670°S, 170.5000°E)
Time: 02:50:20
(UTC+13:00)
Language:

IRAS Rocket - Orbit

View from above orbital plane
View from above orbital plane
View from above satellite
View from above satellite

Ground track
Ground track

The orbit data is extracted from the following two-line orbital elements,

1 13778U 83004B   19076.78573116 -.00000106  00000-0 -30197-4 0  9995
2 13778 100.0456 145.0901 0020392 254.6354 105.2558 14.08997450856955
Epoch (UTC): 17 March 2019 18:51:27
Eccentricity: 0.0020392
inclination: 100.0456°
perigee height: 848 km
apogee height: 877 km
right ascension of ascending node: 145.0901°
argument of perigee: 254.6354°
revolutions per day: 14.08997450
mean anomaly at epoch: 105.2558°
orbit number at epoch: 85695

The dashed part of the orbit path shows where the satellite is in the earth's shadow,  

DLR